COSMOS 2459 (731)

Last updated on Oct. 25, 2020, 5:57 a.m. UTC

1 36400U 10007A   20298.64715918 -.00000094  00000-0  10000-3 0  9991
2 36400  65.9163  23.5796 0023100 348.3622   9.2619  2.13105092 82887
UTC
Height (km)
Latitude
Longitude
Inclination
Orbital Period
UTC large
Height (km)
Speed (km/s)
/
Latitude / Longitude
Inclination (degrees)
Orbital Period (minutes)
Azimuth
Elevation
Range (km)
Doppler Factor
iOS Compass Heading
iOS Angle

Next 30 passes for location: Hong Kong

Rise time Rise Azimuth (degrees) Set time Set Azimuth (degrees) Duration Max altitude (degrees)

No matching passes for this satellites